Погода в Лилонгве

Малави     13°57′24″S   33°44′59″E
темп.,
°C
ветер,
м/с
пор.,
м/с
влажн.,
%
обл.,
%
осадки,
мм/ч
давл.,
гПа
погр.,
м
9 марта, вт
вт923:00+20з1284100 0.1 1013329
02:00+20з1287100 0.2 1012268
05:00+19зсз0188100 0.1 1012215
08:00+20св1285100 0.1 1014330
11:00+20св2285100 0.3 1014335
14:00+22ююв0172100 0.6 1011466
17:00+23ююв1168100 0.0 1010704
20:00+20юв1181100 0.0 1012117
10 марта, ср
ср1023:00+19ююв128181 0.0 1013103
02:00+18ююв118552 0.0 1012147
05:00+18ююв118715 0.0 101298
08:00+22вюв127356 0.0 1014322
11:00+27св22548 0.9 10121188
14:00+28св115935 6.8 1009948
17:00+25всв2373100 3.3 1009547
20:00+22в2480100 5.9 1011287
11 марта, чт
чт1123:00+21всв3689100 1.1 1012367
02:00+20всв258999 3.4 1010237
05:00+19в1288100 0.5 1011156
08:00+22всв127659 0.5 1013399
11:00+27св235735 3.6 10111140
14:00+28ссз235256 7.1 10081240
17:00+26ссв2265100 4.1 1008664
20:00+23с0170100 4.7 1010266
12 марта, пт
пт1223:00+22св2480100 1.9 1012210
02:00+20ссз1282100 3.3 1011233
05:00+19сз2783100 0.0 1012375
08:00+21ссз1480100 0.0 1014479
11:00+21ссз1482100 0.2 1013478
14:00+22ссз1375100 0.3 1011570
17:00+24с117098 0.2 1010442
20:00+21с018099 2.6 101241
13 марта, сб
сб1323:00+21юв1183100 0.6 1014139
02:00+20ссв0084100 3.3 101230
05:00+20с1284100 1.3 1013183
08:00+21юв1280100 1.3 1014335
11:00+21с1178100 0.0 1013360
14:00+27сз225380 0.8 10101082
17:00+22юз347888 5.8 1010280
20:00+21вюв118594 9.9 1012162